Weather History for Syracuse, NY

Change the Weather History Date:

Sunday, October 16, 2011

  Actual Average Record
Temperature  
Mean Temperature 54 °F 50 °F  
Max Temperature 60 °F 60 °F 87 °F (1947)
Min Temperature 48 °F 41 °F 27 °F (1940)
Degree Days  
Heating Degree Days 11 15  
Month to date heating degree days 118 195  
Since 1 July heating degree days 188 362  
Cooling Degree Days 0 0  
Month to date cooling degree days 0 0  
Year to date cooling degree days 911 565  
Growing Degree Days 4 (Base 50)    
Moisture  
Dew Point 43 °F    
Average Humidity 70    
Maximum Humidity 89    
Minimum Humidity 51    
Precipitation  
Precipitation 0.20 in 0.11 in 1.29 in (1955)
Month to date precipitation 1.68 1.80  
Year to date precipitation 40.68 30.08  
Snow  
Snow 0.00 in 0.00 in 0.60 in (1970)
Month to date snowfall 0.0 0.0  
Since 1 July snowfall 0.0 0.0  
Since 1 September snowfall 0.0 0.0  
Snow Depth 0.00 in    
Sea Level Pressure  
Sea Level Pressure 29.67 in    
Wind  
Wind Speed 11 mph (WSW)    
Max Wind Speed 31 mph    
Max Gust Speed 38 mph    
Visibility 9 miles    
Events Rain    
T = Trace of Precipitation, MM = Missing Value Source: NWS Daily Summary

Daily Weather History Graph

Daily Weather History Graph

Search for Another Location

Airport:

Trip Planner

Search our weather history database for the weather conditions in past years. The results will help you decide how hot, cold, wet, or windy it might be!

Date:

Astronomy

Oct. 16, 2011 Rise Set
Actual Time 7:18 AM EDT 6:20 PM EDT
Civil Twilight 6:50 AM EDT 6:49 PM EDT
Nautical Twilight 6:17 AM EDT 7:22 PM EDT
Astronomical Twilight 5:44 AM EDT 7:54 PM EDT
Moon 8:57 PM EDT (10/16) 11:40 AM EDT (10/16)
Length of Visible Light 11h 58m
Length of Day
11h 01m
Waning Gibbous, 82% of the Moon is Illuminated
Oct 16
Waning Gibbous
Oct 19
Last Quarter
Oct 26
New
Nov 2
First Quarter
Nov 10
Full

Hourly Weather History & Observations

Time (EDT) Temp. Dew Point Humidity Pressure Visibility Wind Dir Wind Speed Gust Speed Precip Events Conditions
12:54 AM 52.0 °F 39.9 °F 63% 29.66 in 10.0 mi West 15.0 mph 23.0 mph N/A   Overcast
1:54 AM 52.0 °F 39.9 °F 63% 29.68 in 10.0 mi West 11.5 mph 23.0 mph N/A   Overcast
2:54 AM 52.0 °F 37.9 °F 59% 29.69 in 10.0 mi West 17.3 mph 25.3 mph N/A   Mostly Cloudy
3:54 AM 52.0 °F 37.0 °F 57% 29.70 in 10.0 mi West 13.8 mph 21.9 mph N/A   Mostly Cloudy
4:54 AM 51.1 °F 36.0 °F 56% 29.72 in 10.0 mi West 13.8 mph - N/A   Mostly Cloudy
5:54 AM 50.0 °F 36.0 °F 59% 29.73 in 10.0 mi West 13.8 mph - N/A   Scattered Clouds
6:54 AM 48.9 °F 37.0 °F 64% 29.74 in 10.0 mi WSW 9.2 mph - N/A   Scattered Clouds
7:54 AM 48.0 °F 37.0 °F 66% 29.75 in 10.0 mi WSW 6.9 mph - N/A   Scattered Clouds
8:54 AM 53.1 °F 39.0 °F 59% 29.77 in 10.0 mi WSW 8.1 mph - N/A   Scattered Clouds
9:54 AM 55.9 °F 41.0 °F 57% 29.75 in 10.0 mi WSW 10.4 mph - N/A   Mostly Cloudy
10:54 AM 57.9 °F 41.0 °F 53% 29.75 in 10.0 mi West 16.1 mph 23.0 mph N/A   Mostly Cloudy
11:54 AM 60.1 °F 42.1 °F 51% 29.74 in 10.0 mi West 19.6 mph 28.8 mph N/A   Mostly Cloudy
12:54 PM 57.0 °F 41.0 °F 55% 29.73 in 10.0 mi West 21.9 mph 35.7 mph 0.00 in   Light Drizzle
1:54 PM 55.0 °F 45.0 °F 69% 29.70 in 10.0 mi West 9.2 mph - 0.00 in Rain Light Rain
2:54 PM 55.0 °F 46.0 °F 72% 29.66 in 10.0 mi SSW 6.9 mph - 0.01 in Rain Light Rain
3:54 PM 55.0 °F 44.1 °F 67% 29.64 in 10.0 mi West 13.8 mph 24.2 mph 0.00 in Rain Light Rain
4:54 PM 54.0 °F 44.1 °F 69% 29.64 in 10.0 mi WSW 12.7 mph - 0.00 in   Overcast
5:54 PM 51.1 °F 46.9 °F 86% 29.63 in 6.0 mi SSW 5.8 mph - 0.03 in Rain Light Rain
6:54 PM 51.1 °F 46.9 °F 86% 29.62 in 10.0 mi South 3.5 mph - 0.01 in   Overcast
7:54 PM 52.0 °F 48.0 °F 86% 29.62 in 6.0 mi South 6.9 mph - 0.02 in Rain Light Rain
8:54 PM 51.1 °F 48.0 °F 89% 29.60 in 10.0 mi Calm Calm - 0.06 in Rain Light Rain
9:32 PM 51.8 °F 48.2 °F 88% 29.58 in 5.0 mi Variable 3.5 mph - 0.04 in Rain Light Rain
9:54 PM 52.0 °F 48.9 °F 89% 29.58 in 10.0 mi Calm Calm - 0.04 in Rain Light Rain
10:54 PM 54.0 °F 48.9 °F 83% 29.59 in 10.0 mi West 12.7 mph - 0.00 in   Mostly Cloudy
11:18 PM 53.6 °F 48.2 °F 82% 29.59 in 10.0 mi West 15.0 mph - N/A   Mostly Cloudy
11:42 PM 53.6 °F 48.2 °F 82% 29.60 in 8.0 mi NW 15.0 mph 20.7 mph 0.02 in Rain Light Rain
11:54 PM 53.1 °F 46.0 °F 77% 29.60 in 10.0 mi NW 15.0 mph - 0.03 in Rain Light Rain